This is the latest recevied weather packets stored in our database for station/object K5FEP. If no packets are shown the sender has not sent any weather packets the latest 1 day(s).
| Time | Temp. | Humidity | Pressure | Rain* | Wind** | Luminosity | Snow |
|---|---|---|---|---|---|---|---|
| 1778023594 | 25° C | 37% | 1011.5 hPa | 0 mm | 0.89 m/s, 46° | 36 W/m² | - |
| 1778023292 | 25° C | 37% | 1011.5 hPa | 0 mm | 0.45 m/s, 61° | 49 W/m² | - |
| 1778022988 | 25° C | 37% | 1011.5 hPa | 0 mm | 0.89 m/s, 229° | 61 W/m² | - |
| 1778022687 | 25.56° C | 38% | 1011.3 hPa | 0 mm | 0.89 m/s, 288° | 61 W/m² | - |
| 1778022385 | 25.56° C | 37% | 1011.5 hPa | 0 mm | 0.45 m/s, 192° | 59 W/m² | - |
| 1778022081 | 25.56° C | 39% | 1011.7 hPa | 0 mm | 0 m/s | 73 W/m² | - |
| 1778021777 | 25.56° C | 37% | 1011.6 hPa | 0 mm | 0.89 m/s, 84° | 69 W/m² | - |
| 1778021474 | 25.56° C | 37% | 1011.7 hPa | 0 mm | 0 m/s | 50 W/m² | - |
| 1778021170 | 25.56° C | 36% | 1011.6 hPa | 0 mm | 0.89 m/s, 144° | 68 W/m² | - |
| 1778020868 | 26.11° C | 36% | 1011.7 hPa | 0 mm | 0.89 m/s, 322° | 50 W/m² | - |
| 1778020565 | 26.67° C | 34% | 1011.6 hPa | 0 mm | 2.24 m/s, 51° | 121 W/m² | - |
| 1778020261 | 26.67° C | 34% | 1011.7 hPa | 0 mm | 1.79 m/s, 28° | 175 W/m² | - |
| 1778019958 | 27.22° C | 35% | 1011.7 hPa | 0 mm | 0.45 m/s, 266° | 204 W/m² | - |
| 1778019654 | 26.67° C | 35% | 1011.9 hPa | 0 mm | 0 m/s | 232 W/m² | - |
| 1778019351 | 26.67° C | 34% | 1011.6 hPa | 0 mm | 1.79 m/s, 38° | 250 W/m² | - |
| 1778019047 | 26.67° C | 36% | 1012.1 hPa | 0 mm | 0 m/s | 273 W/m² | - |
| 1778018745 | 26.67° C | 33% | 1011.7 hPa | 0 mm | 1.79 m/s, 125° | 222 W/m² | - |
| 1778018442 | 26.67° C | 34% | 1011.8 hPa | 0 mm | 0.89 m/s, 54° | 219 W/m² | - |
| 1778018141 | 26.67° C | 35% | 1011.8 hPa | 0 mm | 1.34 m/s, 80° | 191 W/m² | - |
| 1778017838 | 27.22° C | 33% | 1011.9 hPa | 0 mm | 1.34 m/s, 348° | 170 W/m² | - |
| 1778017536 | 27.22° C | 33% | 1011.8 hPa | 0 mm | 1.34 m/s, 44° | 298 W/m² | - |
| 1778017232 | 26.67° C | 35% | 1011.9 hPa | 0 mm | 1.34 m/s, 39° | 421 W/m² | - |
| 1778016930 | 26.67° C | 35% | 1011.8 hPa | 0 mm | 1.34 m/s, 52° | 328 W/m² | - |
| 1778016626 | 27.22° C | 33% | 1011.9 hPa | 0 mm | 2.24 m/s, 47° | 161 W/m² | - |
| 1778016323 | 27.78° C | 33% | 1011.8 hPa | 0 mm | 2.24 m/s, 54° | 351 W/m² | - |
* Rain latest hour (hover to see other rain measurements)
** Current wind speed in m/s (hover to see current wind gust speed)